EW0844 Weather Reports


Display with metric or nautical units.
time (UTC)temp
F
wind
direction
speed
MPH
gust
MPH
rain 1hr
in
rain 24hr
in
rain mn
in
humidity
%
barometer
mb
20260506090412 65 105 6.0 13.0 0.00 0.00 0.00 54 1005.3
20260506084912 65 82 3.0 9.0 0.00 0.00 0.00 54 1005.5
20260506083413 65 54 4.0 8.0 0.00 0.00 0.00 54 1005.7
20260506081913 64 100 2.0 10.0 0.00 0.00 0.00 53 1005.8
20260506080412 64 107 2.0 5.0 0.00 0.00 0.00 54 1006.0
20260506071911 62 50 5.0 8.0 0.00 0.00 0.00 56 1006.4
20260506070411 60 63 1.0 8.0 0.00 0.00 0.00 60 1006.4
20260506061911 57 107 1.0 2.0 0.00 0.00 0.00 72 1006.7
20260506060412 55 116 1.0 2.0 0.00 0.00 0.00 73 1006.6
20260506044910 50 101 2.0 4.0 0.00 0.00 0.00 81 1007.0
20260506043412 50 109 2.0 3.0 0.00 0.00 0.00 83 1007.2
20260506040411 49 134 1.0 2.0 0.00 0.00 0.00 82 1007.1
20260506034911 49 88 1.0 3.0 0.00 0.00 0.00 82 1007.2
20260506033412 49 116 1.0 2.0 0.00 0.00 0.00 82 1007.6
20260506031911 49 62 1.0 2.0 0.00 0.00 0.00 83 1007.8
20260506030412 49 128 1.0 3.0 0.00 0.00 0.00 83 1007.7
20260506024912 49 50 1.0 3.0 0.00 0.00 0.00 82 1008.0
20260506023411 50 88 2.0 2.0 0.00 0.00 0.00 82 1007.9
20260506021911 51 112 1.0 2.0 0.00 0.00 0.00 81 1007.6
20260506014913 52 100 1.0 2.0 0.00 0.00 0.00 80 1007.9
20260506013413 53 268 0.0 1.0 0.00 0.00 0.00 80 1008.2
20260506011912 53 116 1.0 2.0 0.00 0.00 0.00 79 1007.9
20260506010414 54 268 1.0 2.0 0.00 0.00 0.00 78 1007.9
20260506001912 54 217 2.0 3.0 0.00 0.00 0.00 79 1008.2
20260506000413 54 177 1.0 2.0 0.00 0.00 0.00 79 1008.2
20260505234912 54 222 1.0 2.0 0.00 0.00 0.00 79 1008.1
20260505233414 55 359 1.0 3.0 0.00 0.00 0.00 78 1008.3
20260505231914 55 249 2.0 6.0 0.00 0.00 0.00 77 1008.5
20260505230413 56 178 2.0 8.0 0.00 0.00 0.00 75 1008.4
20260505224913 56 251 3.0 7.0 0.00 0.00 0.00 74 1008.5
20260505223414 57 257 5.0 10.0 0.00 0.00 0.00 73 1008.7
20260505221914 58 300 6.0 11.0 0.00 0.00 0.00 72 1008.7
20260505214913 58 323 6.0 11.0 0.00 0.00 0.00 73 1008.4
20260505211913 58 177 3.0 7.0 0.00 0.00 0.00 73 1008.0
20260505210413 58 268 2.0 8.0 0.00 0.00 0.00 74 1007.9
20260505204913 58 240 2.0 5.0 0.00 0.00 0.00 73 1007.5
20260505203413 58 116 2.0 6.0 0.00 0.00 0.00 72 1007.2
20260505201912 58 215 3.0 4.0 0.00 0.00 0.00 72 1006.8
20260505200413 58 249 2.0 4.0 0.00 0.00 0.00 72 1006.6
20260505194912 58 229 1.0 3.0 0.00 0.00 0.00 73 1006.4
20260505193412 59 213 1.0 2.0 0.00 0.00 0.00 72 1006.2
20260505191912 59 278 1.0 4.0 0.00 0.00 0.00 71 1006.0
20260505190414 60 256 2.0 4.0 0.00 0.00 0.00 70 1005.6
20260505183413 60 285 2.0 4.0 0.00 0.00 0.00 68 1004.9
20260505181913 61 316 3.0 4.0 0.00 0.00 0.00 67 1004.6
20260505180413 62 19 2.0 4.0 0.00 0.00 0.00 65 1004.5
20260505174914 63 1 2.0 4.0 0.00 0.00 0.00 62 1004.5
20260505173414 64 359 3.0 5.0 0.00 0.00 0.00 61 1004.5
20260505171915 64 313 2.0 5.0 0.00 0.00 0.00 60 1004.4
20260505170414 64 20 1.0 3.0 0.00 0.00 0.00 59 1004.1
20260505164913 65 359 3.0 5.0 0.00 0.00 0.00 58 1004.4
20260505161914 66 220 3.0 6.0 0.00 0.00 0.00 56 1004.7
20260505160413 67 211 4.0 10.0 0.00 0.00 0.00 51 1004.8
20260505151913 71 268 5.0 10.0 0.00 0.00 0.00 40 1004.1
20260505140412 74 254 2.0 4.0 0.00 0.00 0.00 34 1004.0
20260505123413 75 98 2.0 9.0 0.00 0.00 0.00 34 1004.3
20260505121914 75 64 8.0 14.0 0.00 0.00 0.00 35 1004.5
20260505120414 75 127 5.0 10.0 0.00 0.00 0.00 36 1004.6
20260505114913 74 359 3.0 7.0 0.00 0.00 0.00 36 1004.6
20260505113413 74 66 4.0 9.0 0.00 0.00 0.00 36 1004.9
20260505111913 74 181 5.0 8.0 0.00 0.00 0.00 35 1005.1
20260505110413 74 57 2.0 4.0 0.00 0.00 0.00 35 1005.4
20260505101915 73 76 4.0 6.0 0.00 0.00 0.00 35 1006.1
20260505100413 73 78 5.0 8.0 0.00 0.00 0.00 35 1006.3
20260505094913 71 62 1.0 4.0 0.00 0.00 0.00 39 1006.5
20260505093413 71 111 3.0 5.0 0.00 0.00 0.00 39 1006.7
20260505091914 69 71 2.0 5.0 0.00 0.00 0.00 43 1006.8